Location: Владивосток
(43.1151°N, 131.8856°E)
Time: 15:20:55
(UTC+10:00)

LO-87 - Pass Details

Date: 08 July 2022
Orbit: 450 x 466 km, 97.4° (Epoch: 17 August)

Event Time Altitude Azimuth Distance (km) Brightness Sun altitude
Exits shadow 01:31:32 20° 294° (WNW) 1,122 ? -24.3°
Drops below altitude 10° 01:33:19 10° 321° (NW) 1,627 ? -24.2°
Sets 01:35:40 0° 335° (NNW) 2,512 ? -24.2°
